Flag for Switzerland Weather past 2 weeks in Illnau-Effretikon, Zurich, Switzerland

Now
84 °F

Warm.


Feels Like: 85 °F
Forecast: 63 / 94 °F
Wind: 1 mph from Northeast

Location: Zurich Town / Ville.

Current Time: Jul 6, 2015 at 6:46:04 PM

Latest Report: Jul 6, 2015 at 6:00 PM


Visibility: N/A

Pressure: 30.01 "Hg (28.32 "Hg at 514m altitude)

Humidity: 50%

Dew point: 63 °F

Location of Illnau-EffretikonLocation

Historic Weather in Illnau-Effretikon — Graph

°F

Illnau-Effretikon temperature yesterday

Maximum temperature yesterday: 93 °F (at 4:00 PM)
Minimum temperature yesterday: 70 °F (at 7:00 AM)
Average temperature yesterday: 82 °F

Past Weeks' High & Low Weather Summary

 TemperatureHumidityPressure
High94 °F (Jul 4, 4:00 PM)96% (Jun 22, 3:00 AM)30.23 "Hg (Jun 22, 3:00 AM)
Low47 °F (Jun 24, 5:00 AM)26% (Jun 25, 8:00 PM)29.70 "Hg (Jun 22, 10:00 PM)
Average70 °F60%30.08 "Hg
* Reported Jun 21 5:00 PM — Jul 6 5:00 PM, Illnau-Effretikon, Weather by CustomWeather, © 2015

Note: Actual official high and low records may vary slightly from our data, if they occured in-between our weather recording intervals... More about our weather records

Advertising

Illnau-Effretikon weather history for previous 24 hours

 ConditionsComfort  
Time TempWeatherWind HumidityBarometerVisibility
5:00 PM
Mon, Jul 6
85 °FWarm.3 mph49%30.02 "HgN/A
4:00 PM82 °FWarm.3 mph52%30.05 "HgN/A
3:00 PM83 °FWarm.3 mph52%30.06 "HgN/A
2:00 PM82 °FWarm.3 mph57%30.08 "HgN/A
1:00 PM79 °FWarm.3 mph58%30.10 "HgN/A
12:00 PM77 °FMild.2 mph59%30.12 "HgN/A
11:00 AM75 °FMild.2 mph68%30.14 "HgN/A
10:00 AM73 °FMild.3 mph67%30.15 "HgN/A
9:00 AM71 °FMild.2 mph84%30.16 "HgN/A
8:00 AM70 °FMild.2 mph83%30.16 "HgN/A
7:00 AM71 °FMild.5 mph85%30.16 "HgN/A
6:00 AM70 °FMild.1 mph88%30.14 "HgN/A
4:00 AM71 °FMild.3 mph80%30.11 "HgN/A
3:00 AM71 °FMild.3 mph88%30.10 "HgN/A
2:00 AM79 °FWarm.10 mph56%30.04 "HgN/A
1:00 AM81 °FWarm.3 mph54%30.01 "HgN/A
12:00 AM79 °FWarm.1 mph60%29.98 "HgN/A
11:00 PM
Sun, Jul 5
80 °FWarm.2 mph61%29.97 "HgN/A
10:00 PM85 °FWarm.7 mph51%29.94 "HgN/A
9:00 PM85 °FWarm.2 mph58%29.91 "HgN/A
8:00 PM88 °FHot.3 mph50%29.86 "HgN/A
7:00 PM89 °FHot.1 mph51%29.88 "HgN/A
6:00 PM90 °FHot.2 mph41%29.88 "HgN/A
Weather by CustomWeather, © 2015

See weather overviewHow to use our weather pages